Dauntless Aviation
Greetings, Guest! To participate, [sign up for a free account] or [log in]
Airports Europe France
LFIY

Saint Jean d'Angely

FRANCE

Airport Info
Edit

Location

Latitude / Longitude: 45°57'59"N / 0°31'31"W
  45°57.984'N / 0°31.518'W
  45.9664 / -0.5253

Runway Information

Runway 10 /28

Dimensions: 2789 x 164 ft.
Surface: U
 
Runway 10
Runway 28
Latitude: 45.966636 45.965728
Longitude: -0.528086 -0.518369
Elevation: 243 ft. 243 ft.
Runway true heading: 95.7 275.7
 

Instrument Procedures

IAPs (Instrument Approach Procedures)

  Visual Approach Chart
Satellite photo at:
Airport distance calculator
From:
Weather Reports

METAR

LFBG
20.0nm SE
LFBG 251100Z AUTO VRB02KT 9999 ///CB 27/17 Q1012
LFBH
27.2nm W
LFBH 251100Z AUTO 31006KT 6000 NSC 26/18 Q1012
LFBU
34.5nm E
LFBU 251100Z AUTO VRB03KT 9999 ///CB 28/17 Q1012

TAF

LFBG
20.0nm SE
TAF LFBG 250500Z 2506/2606 35005KT 8000 NSC BECMG 2507/2509 BKN030TCU TEMPO 2510/2520 35015G30KT 2000 TSRA BKN030CB BECMG 2521/2523 CAVOK
LFBH
27.2nm W
TAF LFBH 250500Z 2506/2606 02005KT CAVOK BECMG 2509/2512 SCT050TCU TEMPO 2512/2521 30010G20KT 5000 SHRA BKN040TCU PROB40 TEMPO 2514/2518 VRB15G35KT 2000 TSRA BKN030CB BECMG 2521/2524 NSC
Safelog

 

Dauntless Aviation

© 2007-2014 Dauntless Aviation, all rights reserved
Information provided via PilotNav comes from a variety of official and unofficial data sources. As errors are possible, do not use PilotNav for primary flight planning purposes. Verify any information that you receive via PilotNav with current and canonical charts and other official documents. The material in this database is subject to database copyrights held by Dauntless Aviation and may not be copied without the express permission of Dauntless Aviation - licenses for use of part of all of this data are available for purchase; enquire via the Dauntless Aviation helpdesk. A number of mechanisms and markers exist in the database to protect against and identify infringement / copyright. Automated queries against this website are stictly prohibited, and all activity is logged and analyzed.